Regional Weather Roundup
Issued by NWS

Home | Current Version | Previous Version | Graphics & Text | Print | Product List | Glossary Off
Versions: 1 2 3 4 5 6 7 8 9 10 11 12 13 14 15 16 17 18 19 20 21 22 23 24 25 26 27 28 29 30 31 32 33 34 35 36 37 38 39 40 41 42 43 44 45 46 47 48 49 50

000
ASUS43 KMKX 312025
RWRWI

WISCONSIN REGIONAL WEATHER ROUNDUP
NATIONAL WEATHER SERVICE MILWAUKEE/SULLIVAN WI
300 PM CDT FRI OCT 31 2014

NOTE: "FAIR" INDICATES FEW OR NO CLOUDS BELOW 12,000 FEET WITH NO
SIGNIFICANT WEATHER AND/OR OBSTRUCTIONS TO VISIBILITY.

WIZ001-002-006>008-014>016-023>028-312100-
NORTHWEST WISCONSIN

CITY           SKY/WX    TMP DP  RH WIND       PRES   REMARKS
SUPERIOR ARPT  SUNNY     39  20  46 NE3       30.51F
ASHLAND        SUNNY     38  22  52 NE10      30.51F WCI  31
HAYWARD        PTSUNNY   36  19  50 N8        30.48S WCI  30
SIREN          SUNNY     37  17  43 NE6       30.50F WCI  32
CUMBERLAND     MOSUNNY   34  18  51 N7        30.48S WCI  28
RICE LAKE      MOSUNNY   38  19  44 NE12      30.49F WCI  31
CHETEK         PTSUNNY   39  20  46 NW8       30.48S WCI  33
LADYSMITH      PTSUNNY   37  21  52 N14G21    30.47S WCI  28
EAU CLAIRE     MOSUNNY   40  18  41 N14       30.47S WCI  32
MENOMONIE      SUNNY     40  16  37 N12       30.48S WCI  33
NEW RICHMOND   SUNNY     38  17  41 N9        30.50S WCI  32
OSCEOLA        SUNNY     38  19  45 NW8       30.53F WCI  33
$$

WIZ003>005-009-010-017-018-312100-
NORTH CENTRAL WISCONSIN

CITY           SKY/WX    TMP DP  RH WIND       PRES   REMARKS
MANITOWISH WTR CLOUDY    30  25  82 N6G16     30.42S WCI  24
ARBOR VITAE    MOSUNNY   33  24  70 NE15G21   30.41S WCI  23
WOODRUFF       MOSUNNY   33  24  70 NE15G21   30.41S WCI  23
RHINELANDER    CLOUDY    30  20  66 N9G20     30.40S WCI  22
EAGLE RIVER    CLOUDY    31  19  61 N12G20    30.39S WCI  22
LAND O LAKES   PTSUNNY   31  24  73 N10       30.41S WCI  22
PHILLIPS       CLOUDY    32  21  63 N8        30.43S WCI  25
TOMAHAWK       CLOUDY    32  21  64 N13G20    30.42R WCI  22
MEDFORD        PTSUNNY   36  19  51 N12G23    30.41R WCI  27
MERRILL        CLOUDY    34  20  57 NE14      30.39F WCI  25
$$

WIZ029-030-035-036-043>047-312100-
CENTRAL WISCONSIN

CITY           SKY/WX    TMP DP  RH WIND       PRES   REMARKS
WAUSAU         PTSUNNY   35  20  54 N14G23    30.39R WCI  26
MOSINEE        PTSUNNY   36  19  51 N20G28    30.40S WCI  25
MARSHFIELD     CLOUDY    36  18  48 NE16G24   30.40S WCI  26
STEVENS POINT  PTSUNNY   36  16  44 N15G23    30.38S WCI  26
WAUPACA        PTSUNNY   40  19  43 N14G23    30.38R WCI  32
WAUTOMA        PTSUNNY   39  18  43 N18       30.37S WCI  29
WISC RAPIDS    PTSUNNY   39  18  42 N21G26    30.41R WCI  29
CAMP DOUGLAS   PTSUNNY   39  18  41 N12G22    30.40S WCI  32
$$

WIZ011>013-019>022-031-037>040-048>050-312100-
NORTHEAST WISCONSIN

CITY           SKY/WX    TMP DP  RH WIND       PRES   REMARKS
ANTIGO         PTSUNNY   34  20  57 N15G22    30.37S WCI  24
SHAWANO        CLOUDY    40  20  45 N20       30.36S WCI  30
OCONTO         CLOUDY    37  20  50 N12G21    30.35R WCI  29
STURGEON BAY   CLOUDY    36  21  55 N25G36    30.33R WCI  23
GREEN BAY      CLOUDY    38  21  50 N21G28    30.34R WCI  28
MANITOWOC      CLOUDY    37  22  54 N22G30    30.30R WCI  26
APPLETON       PTSUNNY   37  18  44 N26G35    30.34R WCI  26
CLINTONVILLE   PTSUNNY   37  19  48 N13G24    30.36S WCI  29
OSHKOSH        PTSUNNY   38  19  46 N25G32    30.33R WCI  27
$$

WIZ032>034-041-042-053>061-312100-
SOUTHWEST WISCONSIN

CITY           SKY/WX    TMP DP  RH WIND       PRES   REMARKS
LA CROSSE      MOSUNNY   43  20  39 N15       30.43F
SPARTA         MOSUNNY   41  16  36 N15G21    30.42S
VIROQUA        PTSUNNY   38  19  47 N13       30.38F WCI  30
BOSCOBEL       MOSUNNY   43  18  36 N14G20    30.40F
PRAIRIE DU CHI SUNNY     40  16  37 N16G23    30.40F WCI  32
PLATTEVILLE    MOSUNNY   40  18  41 N23G32    30.36S WCI  30
$$

WIZ056-057-062-063-064-067-068-312100-
SOUTH CENTRAL WISCONSIN

CITY           SKY/WX    TMP DP  RH WIND       PRES   REMARKS
REEDSBURG      MOSUNNY   38  19  45 N16G30    30.37S WCI  30
BARABOO/DELLS  MOSUNNY   39  17  41 N14G22    30.36S WCI  30
LONE ROCK      SUNNY     44  17  33 N18G29    30.38S
MINERAL POINT  SUNNY     41  18  38 N20G26    30.34S
MADISON        PTSUNNY   38  19  46 N16G26    30.35S WCI  29
MIDDLETON      CLOUDY    40  17  40 N16       30.35S WCI  31
WATERTOWN      CLOUDY    37  21  51 N14G30    30.31R WCI  28
MONROE         PTSUNNY   37  21  52 N24G35    30.31R WCI  26
JANESVILLE     PTSUNNY   39  19  45 N26G33    30.30R WCI  28
$$

WIZ051-052-058>065-066-070>072-312100-
SOUTHEAST WISCONSIN

CITY           SKY/WX    TMP DP  RH WIND       PRES   REMARKS
MILWAUKEE      CLOUDY    38  21  50 N22G36    30.26R WCI  27
WAUKESHA       CLOUDY    36  19  51 N18G29    30.28R WCI  25
MILWAUKEE/TIMM CLOUDY    37  19  48 N20G37    30.28R WCI  27
RACINE         CLOUDY    38  23  55 N25G40    30.25R WCI  27
BURLINGTON     CLOUDY    37  20  51 N20G33    30.27R WCI  26
KENOSHA        CLOUDY    39  22  50 N24G35    30.24R WCI  28
FOND DU LAC    CLOUDY    39  19  44 N21G30    30.33S WCI  29
SHEBOYGAN      CLOUDY    36  21  54 N16G26    30.29R WCI  26
WEST BEND      CLOUDY    36  21  55 N20G26    30.29R WCI  25
JUNEAU         PTSUNNY   36  18  47 N22G31    30.32S WCI  25
$$

LSZ147-162-312100-
LAKE SUPERIOR

STATION/POSITION TIME  TEMP    WIND        PRES    WAVE
                       AIR SEA DIR/SP/G            HT/PER
                 (UTC) (F)     (DEG/KT/KT) (MB)    (FT/S)
W MID LAKE BUOY  1950   34 43  330/  8/ 12 1033.3F   5/ 7
DEVILS ISLAND    2000   34      10/  8/  9 1034.0F
PORT WING        1940   37      70/  4/  7 1033.5F
SAXON HARBOR     1900   36      30/ 14/ 18 1032.8S
$$

LMZ867-665-643>646-312100-
LAKE MICHIGAN

STATION/POSITION TIME  TEMP    WIND        PRES    WAVE
                       AIR SEA DIR/SP/G            HT/PER
                 (UTC) (F)     (DEG/KT/KT) (MB)    (FT/S)
CHAMBERS ISLAND  1900   37     340/ 28/ 38 1026.8R
N MID LAKE BUOY  1950   36 48  350/ 29/ 37 1025.7R   8/ 7
NORTHPORT PIER   2000   37     350/ 27     1027.1R
SISTER BAY       1828          350/ 26/ 38   N/A
KEWAUNEE LAKESHO 2000   36     350/ 20/ 31 1025.3R
SHEBOYGAN LAKESH 2000   38 48  350/ 30/ 33 1026.6R
PORT WASHINGTON  1940   39     360/  9/ 23 1025.7R
ATWATER BUOY     2000   37     350/ 29     1024.9R
MILWAUKEE LAKESH 2000   38     340/ 22/ 30   N/A
S MID LAKE BUOY  1950   40 47  350/ 35/ 43 1020.6R  17/10
KENOSHA   LAKESH 2000   39     340/ 32/ 41 1022.7R
$$

TC  - TEMPERATURE IN CELSIUS
VSB - VISIBILITY IN STATUTE MILES
WCI - WIND CHILL INDEX
HX  - HEAT INDEX




USA.gov is the U.S. government's official web portal to all federal, state and local government web resources and services.